Rome, NY

8:32 PM EST on November 15, 2019 (GMT -0500)
Griffiss

Weather History for KRME - October, 2019

Change the Weather History Date:

Friday, October 18, 2019

  Actual Average Record
Temperature  
Mean Temperature 44 °F -  
Max Temperature 48 °F 58 °F 82 °F (2016)
Min Temperature 42 °F 40 °F 26 °F (2018)
Degree Days  
Heating Degree Days 21    
Moisture  
Dew Point 41 °F    
Average Humidity 88    
Maximum Humidity 100    
Minimum Humidity 73    
Precipitation  
Precipitation 0.01 in - - ()
Sea Level Pressure  
Sea Level Pressure 29.89 in    
Wind  
Wind Speed 10 mph (WNW)    
Max Wind Speed 16 mph    
Max Gust Speed 23 mph    
Visibility 10 miles    
Events Rain    
Averages and records for this station are not official NWS values.
T = Trace of Precipitation, MM = Missing Value Source: NWS Daily Summary

Daily Weather History Graph

Daily Weather History Graph

Search for Another Location

Airport or City:

Astronomy

Oct. 18, 2019 Rise Set
Actual Time 7:18 AM EDT 6:14 PM EDT
Civil Twilight 6:49 AM EDT 6:43 PM EDT
Nautical Twilight 6:16 AM EDT 7:16 PM EDT
Astronomical Twilight 5:43 AM EDT 7:48 PM EDT
Moon 9:22 PM EDT (10/18) 11:55 AM EDT (10/18)
Length of Visible Light 11h 53m
Length of Day
10h 55m
Waning Gibbous, 79% of the Moon is Illuminated
Oct 18
Waning Gibbous
Oct 21
Last Quarter
Oct 27
New
Nov 4
First Quarter
Nov 12
Full

Hourly Weather History & Observations

Time (EDT) Temp. Windchill Dew Point Humidity Pressure Visibility Wind Dir Wind Speed Gust Speed Precip Events Conditions
12:53 AM 46.0 °F 39.6 °F 43.0 °F 89% 29.68 in 10.0 mi WNW 15.0 mph - N/A   Overcast
1:53 AM 46.0 °F 40.6 °F 42.1 °F 86% 29.70 in 10.0 mi WNW 11.5 mph - N/A   Overcast
2:53 AM 46.0 °F 40.6 °F 42.1 °F 86% 29.72 in 10.0 mi WNW 11.5 mph - N/A   Overcast
3:53 AM 45.0 °F 39.3 °F 41.0 °F 86% 29.74 in 10.0 mi WNW 11.5 mph - N/A   Overcast
4:53 AM 45.0 °F 40.1 °F 42.1 °F 90% 29.77 in 10.0 mi West 9.2 mph - N/A   Overcast
5:53 AM 43.0 °F 38.8 °F 43.0 °F 100% 29.80 in 5.0 mi NW 6.9 mph - 0.00 in Rain Light Rain
6:00 AM 44.1 °F 39.5 °F 43.0 °F 96% 29.80 in 9.0 mi WNW 8.1 mph - 0.00 in Rain Light Rain
6:48 AM 42.8 °F 39.3 °F 42.8 °F 100% 29.82 in 8.0 mi NW 5.8 mph - 0.00 in Rain Light Rain
6:53 AM 43.0 °F 39.5 °F 43.0 °F 100% 29.83 in 7.0 mi NW 5.8 mph - 0.01 in Rain Light Rain
7:26 AM 44.1 °F 38.1 °F 42.1 °F 93% 29.84 in 10.0 mi WNW 11.5 mph 18.4 mph 0.00 in   Overcast
7:53 AM 44.1 °F 39.5 °F 42.1 °F 93% 29.85 in 10.0 mi WNW 8.1 mph - 0.00 in   Overcast
8:53 AM 44.1 °F 39.5 °F 43.0 °F 96% 29.88 in 10.0 mi West 8.1 mph - 0.00 in   Overcast
9:53 AM 44.1 °F 39.5 °F 43.0 °F 96% 29.89 in 10.0 mi West 8.1 mph - N/A   Overcast
10:53 AM 45.0 °F 40.6 °F 42.1 °F 90% 29.90 in 10.0 mi West 8.1 mph - N/A   Overcast
11:53 AM 44.1 °F 36.8 °F 42.1 °F 93% 29.91 in 10.0 mi West 16.1 mph - N/A   Overcast
12:53 PM 45.0 °F 39.7 °F 41.0 °F 86% 29.93 in 10.0 mi WNW 10.4 mph - N/A   Overcast
1:53 PM 46.0 °F 40.2 °F 39.0 °F 76% 29.94 in 10.0 mi WNW 12.7 mph 23.0 mph N/A   Overcast
2:53 PM 46.0 °F 40.2 °F 37.9 °F 73% 29.96 in 10.0 mi West 12.7 mph 23.0 mph N/A   Overcast
3:53 PM 45.0 °F 39.3 °F 37.9 °F 76% 29.97 in 10.0 mi WNW 11.5 mph - N/A   Overcast
4:53 PM 45.0 °F 40.6 °F 39.0 °F 80% 29.99 in 10.0 mi WNW 8.1 mph - N/A   Overcast
5:41 PM 45.0 °F 41.2 °F 39.0 °F 80% 30.00 in 10.0 mi West 6.9 mph - N/A   Overcast
5:53 PM 45.0 °F 41.2 °F 39.0 °F 80% 30.00 in 10.0 mi West 6.9 mph - N/A   Overcast
6:53 PM 45.0 °F 40.6 °F 39.0 °F 80% 30.01 in 10.0 mi West 8.1 mph - N/A   Overcast
7:53 PM 44.1 °F 42.5 °F 39.0 °F 82% 30.04 in 10.0 mi WNW 3.5 mph - N/A   Overcast
8:53 PM 44.1 °F - 39.9 °F 85% 30.04 in 10.0 mi Calm Calm - N/A   Overcast
9:53 PM 44.1 °F - 39.9 °F 85% 30.04 in 10.0 mi Calm Calm - N/A   Overcast
10:53 PM 44.1 °F - 41.0 °F 89% 30.04 in 10.0 mi Calm Calm - N/A   Overcast